This is the latest recevied weather packets stored in our database for station/object G1YBJ-13. If no packets are shown the sender has not sent any weather packets the latest 10 day(s).
| Time | Temp. | Humidity | Pressure | Rain* | Wind** | Luminosity | Snow |
|---|---|---|---|---|---|---|---|
| 1777801914 | 16.67° C | 71% | 1009.8 hPa | - | - | - | - |
| 1777801013 | 15.56° C | 75% | 1009.8 hPa | - | - | - | - |
| 1777800112 | 15° C | 75% | 1009.7 hPa | - | - | - | - |
| 1777799211 | 14.44° C | 76% | 1009.8 hPa | - | - | - | - |
| 1777798310 | 14.44° C | 77% | 1009.8 hPa | - | - | - | - |
| 1777797409 | 13.89° C | 78% | 1009.7 hPa | - | - | - | - |
| 1777796508 | 13.33° C | 79% | 1009.7 hPa | - | - | - | - |
| 1777795608 | 13.33° C | 83% | 1009.6 hPa | - | - | - | - |
| 1777793806 | 13.33° C | 80% | 1009.7 hPa | - | - | - | - |
| 1777792905 | 13.33° C | 80% | 1009.6 hPa | - | - | - | - |
| 1777792004 | 13.33° C | 83% | 1009.6 hPa | - | - | - | - |
| 1777791103 | 12.78° C | 82% | 1009.6 hPa | - | - | - | - |
| 1777790202 | 12.78° C | 83% | 1009.5 hPa | - | - | - | - |
| 1777789300 | 12.78° C | 81% | 1009.4 hPa | - | - | - | - |
| 1777788399 | 12.78° C | 81% | 1009.3 hPa | - | - | - | - |
| 1777787498 | 12.78° C | 82% | 1009.2 hPa | - | - | - | - |
| 1777786596 | 12.78° C | 83% | 1009.1 hPa | - | - | - | - |
| 1777785694 | 12.78° C | 83% | 1008.9 hPa | - | - | - | - |
| 1777784793 | 12.78° C | 82% | 1008.9 hPa | - | - | - | - |
| 1777783892 | 12.78° C | 83% | 1008.8 hPa | - | - | - | - |
| 1777782990 | 12.78° C | 82% | 1008.8 hPa | - | - | - | - |
| 1777782090 | 13.33° C | 82% | 1008.8 hPa | - | - | - | - |
| 1777781188 | 13.33° C | 82% | 1008.9 hPa | - | - | - | - |
| 1777780287 | 13.33° C | 83% | 1009 hPa | - | - | - | - |
| 1777779387 | 13.33° C | 81% | 1009.2 hPa | - | - | - | - |
* Rain since midnight (hover to see other rain measurements)
** Current wind speed in m/s (hover to see current wind gust speed)